Location: Windsor
(43.2292°N, 89.3015°W)
Time: 10:55:20
(UTC+00:00)

ISS - Visible Passes

Search period start: 28 November 2023 00:00
Search period end: 08 December 2023 00:00
Orbit: 417 x 417 km, 51.6° (Epoch: 28 November)

Date Brightness Start Highest point End Pass type
(mag) Time Alt. Az. Time Alt. Az. Time Alt. Az.
28 Nov -0.5 01:05:10 10° NW 01:05:13 10° NW 01:05:13 10° NW visible
29 Nov -2.0 00:16:58 10° NW 00:18:56 23° NNW 00:18:56 23° NNW visible
29 Nov -2.2 23:28:41 10° NW 23:31:25 22° NNE 23:32:40 18° NE visible
30 Nov -0.6 01:05:14 10° NW 01:05:35 12° NW 01:05:35 12° NW visible
01 Dec -2.8 00:16:55 10° NW 00:19:22 37° NNW 00:19:22 37° NNW visible
01 Dec -2.9 23:28:35 10° NW 23:31:42 34° NNE 23:33:14 22° ENE visible
02 Dec -0.8 01:05:18 10° WNW 01:06:09 16° WNW 01:06:09 16° WNW visible
03 Dec -3.7 00:16:46 10° WNW 00:20:07 73° SSW 00:20:08 73° SSW visible
03 Dec -3.8 23:28:17 10° NW 23:31:38 69° NNE 23:34:18 15° ESE visible
04 Dec -0.7 01:05:51 10° W 01:07:15 15° WSW 01:07:15 15° WSW visible
05 Dec -1.7 00:16:47 10° WNW 00:19:40 27° SW 00:21:43 15° S visible
05 Dec -2.7 23:27:58 10° WNW 23:31:12 46° SW 23:34:25 10° SE visible
07 Dec -0.2 00:18:20 10° WSW 00:18:50 10° SW 00:19:20 10° SW visible
07 Dec -0.7 23:28:04 10° W 23:30:23 18° SW 23:32:42 10° S visible
